Torna al catalogo

BREEZE-M DEB

AttivoHEO
NORAD 32038·DEBRIS·🇷🇺 Russia

Lanciato Feb 28, 2006 da Baikonur Cosmodrome

Loading…

Prossimi Passaggi (prossime 24 ore)

TLE

AggiornatoSource: Space-Track

Epoca: Sep 14, 2026, 01:31 UTC

1 32038U 06006R   26257.06361564  .00001088  00000-0  99945-3 0  9997
2 32038  51.6886  36.8191 5094964 115.5162 304.9393  5.31060591375262

Traccia BREEZE-M DEB in tempo reale con AllMySat

Download on the App Store